This is the latest recevied weather packets stored in our database for station/object AB0TJ. If no packets are shown the sender has not sent any weather packets the latest 10 day(s).
| Time | Temp. | Humidity | Pressure | Rain* | Wind** | Luminosity | Snow |
|---|---|---|---|---|---|---|---|
| 1777652332 | 16.11° C | 35% | 1019.3 hPa | 0 mm | - | 566 W/m² | - |
| 1777651251 | 15.56° C | 35% | 1019.6 hPa | 0 mm | - | 516 W/m² | - |
| 1777650759 | 15° C | 36% | 1019.2 hPa | 0 mm | - | 492 W/m² | - |
| 1777650209 | 14.44° C | 37% | 1019.5 hPa | 0 mm | - | 461 W/m² | - |
| 1777649704 | 14.44° C | 38% | 1019.6 hPa | 0 mm | - | 439 W/m² | - |
| 1777649207 | 13.33° C | 39% | 1019.4 hPa | 0 mm | - | 413 W/m² | - |
| 1777648609 | 12.22° C | 41% | 1019.6 hPa | 0 mm | - | 381 W/m² | - |
| 1777648084 | 11.67° C | 42% | 1019.3 hPa | 0 mm | - | 353 W/m² | - |
| 1777646354 | 9.44° C | 49% | 1019.5 hPa | 0 mm | - | 250 W/m² | - |
| 1777645872 | 8.89° C | 50% | 1019.5 hPa | 0 mm | - | 220 W/m² | - |
| 1777645392 | 8.33° C | 52% | 1019.3 hPa | 0 mm | - | 191 W/m² | - |
| 1777644817 | 7.78° C | 54% | 1019.3 hPa | 0 mm | - | 160 W/m² | - |
| 1777644293 | 7.22° C | 55% | 1019.5 hPa | 0 mm | - | 135 W/m² | - |
| 1777643807 | 6.67° C | 56% | 1019.2 hPa | 0 mm | - | 111 W/m² | - |
| 1777642754 | 5° C | 66% | 1019.1 hPa | 0 mm | - | 68 W/m² | - |
| 1777642196 | 4.44° C | 69% | 1018.9 hPa | 0 mm | - | 47 W/m² | - |
| 1777641652 | 3.89° C | 70% | 1019.3 hPa | 0 mm | - | 31 W/m² | - |
| 1777641099 | 3.33° C | 71% | 1018.9 hPa | 0 mm | - | 27 W/m² | - |
| 1777638911 | 3.33° C | 70% | 1018.9 hPa | 0 mm | - | 10 W/m² | - |
| 1777638379 | 3.33° C | 69% | 1018.5 hPa | 0 mm | - | 6 W/m² | - |
| 1777637869 | 3.33° C | 69% | 1018.5 hPa | 0 mm | - | 3 W/m² | - |
| 1777637319 | 3.33° C | 69% | 1018.6 hPa | 0 mm | - | 1 W/m² | - |
| 1777636739 | 3.33° C | 69% | 1018.2 hPa | 0 mm | - | 0 W/m² | - |
| 1777635604 | 3.33° C | 68% | 1018.5 hPa | 0 mm | - | 0 W/m² | - |
| 1777635054 | 3.89° C | 67% | 1018.4 hPa | 0 mm | - | 0 W/m² | - |
* Rain latest hour (hover to see other rain measurements)
** Current wind speed in m/s (hover to see current wind gust speed)